DW0542 Weather Reports


time (UTC)temp
F
wind
direction
speed
knots
gust
knots
rain 1hr
in
rain 24hr
in
rain mn
in
humidity
%
barometer
mb
20260503191552 51 293 13.0 18.2 0.00 0.06 0.00 53 1007.3
20260503190057 51 310 13.0 21.7 0.00 0.06 0.00 49 1007.3
20260503183045 50 306 13.0 20.9 0.00 0.06 0.00 50 1007.2
20260503181551 50 284 10.4 20.9 0.00 0.06 0.00 53 1007.3
20260503180051 50 298 15.6 20.9 0.00 0.06 0.00 51 1007.2
20260503174539 50 286 12.2 20.9 0.00 0.06 0.00 52 1007.2
20260503173039 50 292 13.9 20.9 0.00 0.06 0.00 52 1007.0
20260503171538 50 288 11.3 18.2 0.00 0.06 0.00 53 1007.1
20260503081531 44 303 7.0 12.2 0.00 0.13 0.00 64 1008.5
20260503071504 45 311 7.8 11.3 0.00 0.13 0.00 63 1008.9
20260503054525 46 305 5.2 10.4 0.00 0.13 0.00 60 1009.9
20260503053022 47 318 3.5 8.7 0.00 0.13 0.00 58 1010.0
20260503051514 47 315 4.3 9.6 0.00 0.13 0.00 59 1010.2
20260503050008 48 307 4.3 10.4 0.00 0.13 0.00 55 1010.4
20260503044508 48 315 6.1 9.6 0.00 0.13 0.00 56 1010.6
20260503043006 48 321 5.2 9.6 0.00 0.13 0.00 58 1010.7
20260503041604 48 313 5.2 10.4 0.00 0.13 0.00 57 1010.7
20260503040106 48 315 5.2 9.6 0.00 0.13 0.00 57 1011.1
20260503034555 48 293 6.1 9.6 0.00 0.13 0.00 56 1011.0
20260503033105 48 320 4.3 9.6 0.00 0.13 0.00 57 1010.9
20260503031551 49 326 2.6 9.6 0.00 0.13 0.00 56 1010.8
20260503030049 49 349 1.7 8.7 0.00 0.13 0.00 59 1011.0
20260503024546 49 322 2.6 10.4 0.00 0.13 0.00 58 1011.1
20260503023044 50 349 3.5 9.6 0.00 0.13 0.00 61 1010.9
20260503021543 50 307 5.2 10.4 0.00 0.13 0.00 66 1010.8
20260503020036 49 327 2.6 8.7 0.00 0.13 0.00 88 1010.9
20260503014534 48 323 0.0 0.0 0.00 0.13 0.00 90 1011.0
20260503013033 48 321 0.0 2.6 0.00 0.13 0.00 90 1011.2
20260503011534 47 321 0.0 0.0 0.00 0.13 0.00 89 1010.9
20260503010034 48 321 0.0 0.0 0.00 0.13 0.00 89 1010.8
20260503004525 48 321 0.0 0.0 0.00 0.13 0.00 88 1010.7
20260503003026 49 321 0.0 0.0 0.00 0.13 0.00 88 1010.6
20260503001522 49 321 0.0 0.0 0.00 0.13 0.00 88 1010.5
20260503000019 49 321 0.0 0.0 0.00 0.13 0.00 87 1010.5
20260502234555 50 321 0.0 0.0 0.00 0.13 0.00 87 1010.5
20260502233045 51 321 0.0 0.0 0.00 0.13 0.00 87 1010.3
20260502231547 51 321 0.0 0.0 0.00 0.13 0.00 87 1010.3
20260502230042 51 314 0.0 0.0 0.00 0.13 0.00 87 1010.3
20260502224541 51 314 0.0 0.0 0.00 0.13 0.00 87 1010.2
20260502223041 51 314 0.0 0.0 0.00 0.13 0.00 86 1010.1
20260502221509 52 314 0.0 0.0 0.00 0.13 0.00 87 1010.0
20260502220106 51 314 0.0 0.0 0.00 0.13 0.00 86 1010.1
20260502214502 50 316 0.0 0.0 0.00 0.13 0.00 86 1010.3
20260502213109 50 315 0.0 0.0 0.01 0.13 0.13 88 1010.2
20260502211559 50 316 0.0 0.9 0.01 0.13 0.13 88 1010.1
20260502210058 49 316 0.0 0.0 0.05 0.13 0.13 88 1010.2
20260502204617 49 316 0.0 0.0 0.06 0.13 0.13 88 1010.4
20260502203058 49 316 0.0 1.7 0.05 0.12 0.12 87 1010.4
20260502201553 49 329 2.6 5.2 0.05 0.12 0.12 87 1010.5
20260502200053 49 309 5.2 11.3 0.01 0.08 0.08 84 1010.7
20260502194551 53 260 9.6 13.9 0.00 0.07 0.07 72 1010.3
20260502193053 54 196 1.7 8.7 0.00 0.07 0.07 72 1010.1